Location: Darlington Observatory
(36.4817°N, 105.8156°W)
Time: 16:49:26
(UTC-07:00)

NOSS 3-3 (A) - Visible Passes

Search period start: 20 December 2014 00:00
Search period end: 30 December 2014 00:00
Orbit: 964 x 1249 km, 63.4° (Epoch: 14 December)

Date Brightness Start Highest point End Pass type
(mag) Time Alt. Az. Time Alt. Az. Time Alt. Az.
20 Dec 6.2 03:10:35 22° ESE 03:10:35 22° ESE 03:13:11 10° SE visible
20 Dec 5.4 04:58:06 29° SW 04:58:06 29° SW 05:03:02 10° S visible
20 Dec 4.2 18:39:00 10° SW 18:45:19 71° WNW 18:49:21 25° NNE visible
20 Dec 6.4 20:33:47 10° WNW 20:36:50 15° NW 20:36:50 15° NW visible
21 Dec 5.7 04:15:50 28° S 04:15:50 28° S 04:19:24 10° S visible
21 Dec 4.0 17:54:26 10° SSW 18:00:42 72° ESE 18:06:39 13° NE visible
21 Dec 5.9 19:47:20 10° W 19:52:18 23° NW 19:54:08 20° NNW visible
22 Dec 6.4 03:33:34 18° SSE 03:33:34 18° SSE 03:35:10 10° SSE visible
22 Dec 4.6 17:10:23 10° S 17:16:16 42° ESE 17:22:24 10° NE visible
22 Dec 5.4 19:01:30 10° WSW 19:07:14 34° NW 19:11:23 18° N visible
23 Dec 6.5 04:38:47 11° SSW 04:38:47 11° SSW 04:39:00 10° SSW visible
23 Dec 4.7 18:16:10 10° SW 18:22:21 53° NW 18:28:33 12° NNE visible
23 Dec 6.4 20:12:21 10° NW 20:15:01 12° NNW 20:16:01 12° NNW visible
24 Dec 4.1 17:31:19 10° SSW 17:37:39 85° WNW 17:44:22 10° NNE visible
24 Dec 6.2 19:25:21 10° WNW 19:29:39 18° NW 19:33:08 13° N visible
25 Dec 5.7 18:39:09 10° W 18:44:28 26° NW 18:50:02 10° NNE visible
26 Dec 5.2 17:53:31 10° WSW 17:59:28 40° NW 18:05:46 10° NNE visible
27 Dec 6.4 19:03:40 10° WNW 19:07:04 14° NNW 19:10:34 10° N visible
28 Dec 6.0 18:17:02 10° W 18:21:46 21° NW 18:26:42 10° N visible
29 Dec 5.6 17:31:04 10° WSW 17:36:39 31° NW 17:42:32 10° NNE visible
